Stations météo

réclame
Mon MeteoGroup
Görlitz, Allemagne (10499): Température de l'air & dewpoint: 19.02.2018 06:00:00 - 25.02.2018 06:00:00 (CET)Görlitz, Allemagne (10499): Température de l'air 5cm & Température de l'air -5cm: 19.02.2018 06:00:00 - 25.02.2018 06:00:00 (CET)Görlitz, Allemagne (10499): Température de l'air -20cm & Température de l'air -100cm: 19.02.2018 06:00:00 - 25.02.2018 06:00:00 (CET)Görlitz, Allemagne (10499): Vitesse du vent & gusts: 19.02.2018 06:00:00 - 25.02.2018 06:00:00 (CET)Görlitz, Allemagne (10499): Direction du vent: 19.02.2018 06:00:00 - 25.02.2018 06:00:00 (CET)Görlitz, Allemagne (10499): reduced air pressure: 19.02.2018 06:00:00 - 25.02.2018 06:00:00 (CET)Görlitz, Allemagne (10499): visibility: 19.02.2018 06:00:00 - 25.02.2018 06:00:00 (CET)Görlitz, Allemagne (10499): Ensoleillement: 19.02.2018 06:00:00 - 25.02.2018 06:00:00 (CET)Görlitz, Allemagne (10499): Quantités de précipitations: 19.02.2018 06:00:00 - 25.02.2018 06:00:00 (CET)
Date & Time tt [°C] td [°C] tt 5cm [°C] tt -5cm [°C] tt -20cm [°C] tt -100cm [°C] ff [km/h] ff [knt] fx [km/h] fx [knt] dd ppp [hPa] vv [km] sd [min] rr [mm]
25.02.2018 06:00:00 -12,0 -14,7 -13,0 -2,6 0,1 3,4 9 5 14 7 NE 1032,2 17 0 0,0
25.02.2018 05:00:00 -10,9 -14,5 -11,3 -2,6 0,1 3,3 7 4 16 9 NE 1032,1 16 0 0,0
25.02.2018 04:00:00 -11,3 -14,3 -11,5 -2,5 0,1 3,3 7 4 13 7 NE 1032,2 15 0 0,0
25.02.2018 03:00:00 -11,2 -14,4 -12,1 -2,4 0,1 3,3 7 4 18 10 NE 1032,2 15 0 0,0
25.02.2018 02:00:00 -10,6 -14,3 -11,4 -2,3 0,1 3,3 14 8 22 12 NE 1032,4 12 0 0,0
25.02.2018 01:00:00 -10,1 -13,5 -10,9 -2,1 0,2 3,3 13 7 16 8 NE 1032,3 12 0 0,0
25.02.2018 00:00:00 -9,4 -13,1 -10,3 -1,9 0,2 3,3 11 6 19 10 NE 1032,2 15 0 0,0
24.02.2018 23:00:00 -8,4 -12,8 -9,2 -1,8 0,2 3,3 15 8 24 13 NE 1031,9 15 0 0,0
24.02.2018 22:00:00 -7,1 -12,4 -7,3 -1,7 0,2 3,3 19 10 26 14 NE 1031,4 12 0 0,0
24.02.2018 21:00:00 -7,3 -11,9 -8,3 -1,6 0,2 3,3 9 5 13 7 N 1031,3 15 0 0,0
24.02.2018 20:00:00 -7,6 -12,0 -9,3 -1,4 0,2 3,4 10 5 14 7 N 1031,2 12 0 0,0
24.02.2018 19:00:00 -6,5 -11,9 -7,6 -1,1 0,2 3,4 13 7 26 14 NNE 1030,6 16 0 0,0
24.02.2018 18:00:00 -5,7 -12,0 -6,4 -0,9 0,2 3,4 16 9 33 18 NE 1030,0 16 9 0,0
24.02.2018 17:00:00 -5,2 -12,0 -5,4 -0,7 0,2 3,4 27 15 42 23 NE 1029,3 11 23 0,0
24.02.2018 16:00:00 -4,1 -11,0 -3,9 -0,6 0,2 3,4 33 18 48 26 NNE 1028,6 21 17 0,0
24.02.2018 15:00:00 -3,3 -11,8 -2,6 -0,6 0,2 3,4 28 15 44 24 NNE 1028,2 23 21 0,0
24.02.2018 14:00:00 -2,9 -11,6 -0,9 -0,7 0,2 3,4 25 14 41 22 NNE 1028,1 22 16 0,0
24.02.2018 13:00:00 -3,8 -11,9 -3,2 -0,7 0,2 3,4 29 16 44 24 NNE 1027,9 22 5 0,0
24.02.2018 12:00:00 -4,1 -9,0 -3,2 -0,8 0,2 3,4 25 14 39 21 NNE 1028,0 27 3 0,0
24.02.2018 11:00:00 -3,2 -8,5 -1,6 -1,0 0,3 3,4 26 14 38 20 N 1027,6 22 21 0,0
24.02.2018 10:00:00 -3,8 -7,5 -1,2 -1,2 0,3 3,4 21 11 29 15 NNE 1027,8 17 60 0,0
24.02.2018 09:00:00 -5,9 -8,1 -4,2 -1,4 0,3 3,5 12 7 19 10 N 1028,2 8 47 0,0
24.02.2018 08:00:00 -7,1 -9,4 -6,8 -1,6 0,3 3,5 8 5 12 7 NW 1028,1 5 0 0,0
24.02.2018 07:00:00 -7,8 -9,6 -7,3 -1,8 0,3 3,5 6 4 12 7 NW 1028,1 5 0 0,0
24.02.2018 06:00:00 -9,8 -10,9 -9,3 -2,0 0,3 3,4 9 5 13 7 W 1027,8 4,0 0 0,0
24.02.2018 05:00:00 -10,2 -11,3 -12,8 -1,9 0,3 3,4 6 3 14 8 NNW 1027,8 4,0 0 0,0
24.02.2018 04:00:00 -10,4 -11,5 -12,2 -1,8 0,3 3,4 4 2 7 4 NW 1027,8 4,0 0 0,0
24.02.2018 03:00:00 -9,5 -10,6 -11,6 -1,7 0,4 3,4 6 3 16 9 ENE 1027,7 4,0 0 0,0
24.02.2018 02:00:00 -8,9 -10,7 -11,7 -1,6 0,4 3,4 5 3 8 4 N 1027,8 6 0 0,0
24.02.2018 01:00:00 -8,9 -10,7 -10,4 -1,5 0,4 3,4 6 3 7 4 N 1027,8 5 0 0,0
24.02.2018 00:00:00 -8,8 -10,5 -11,4 -1,4 0,4 3,4 5 3 19 10 N 1027,6 5 0 0,0
23.02.2018 23:00:00 -8,0 -10,6 -10,2 -1,3 0,4 3,5 5 3 14 8 ENE 1027,4 5 0 0,0
23.02.2018 22:00:00 -7,7 -10,5 -9,1 -1,1 0,4 3,5 5 3 14 8 ENE 1027,2 4,5 0 0,0
23.02.2018 21:00:00 -7,0 -10,5 -7,9 -0,9 0,4 3,5 11 6 16 9 NE 1026,7 6 0 0,0
23.02.2018 20:00:00 -6,4 -10,2 -7,3 -0,7 0,4 3,5 13 7 21 11 NE 1026,5 8 0 0,0
23.02.2018 19:00:00 -5,8 -10,2 -6,7 -0,5 0,4 3,5 14 8 20 11 NNE 1026,4 8 0 0,0
23.02.2018 18:00:00 -4,8 -9,7 -5,7 -0,3 0,4 3,5 14 8 23 12 NE 1026,0 9 4 0,0
23.02.2018 17:00:00 -3,7 -9,4 -4,2 -0,3 0,4 3,5 9 5 24 13 ENE 1025,5 12 60 0,0
23.02.2018 16:00:00 -3,7 -9,6 -2,5 -0,4 0,4 3,5 13 7 25 14 E 1025,6 11 60 0,0
23.02.2018 15:00:00 -3,7 -9,6 -1,6 -0,4 0,5 3,5 13 7 28 15 ENE 1025,6 10 60 0,0
23.02.2018 14:00:00 -3,5 -9,4 -0,6 -0,5 0,5 3,5 14 8 27 14 E 1025,6 10 60 0,0
23.02.2018 13:00:00 -4,6 -9,7 -1,0 -0,7 0,5 3,5 15 8 26 14 E 1026,0 9 44 0,0
23.02.2018 12:00:00 -6,3 -9,8 -5,5 -0,7 0,5 3,5 19 10 31 17 NE 1026,3 8 1 0,0
23.02.2018 11:00:00 -6,4 -9,6 -5,4 -0,9 0,5 3,5 20 11 29 16 NE 1026,0 7 1 0,0
23.02.2018 10:00:00 -6,2 -8,8 -4,7 -1,0 0,5 3,5 17 9 28 15 NE 1025,7 6 55 0,0
23.02.2018 09:00:00 -6,9 -9,3 -5,4 -1,2 0,5 3,5 15 8 26 14 ENE 1025,7 6 60 0,0
23.02.2018 08:00:00 -8,2 -9,7 -8,1 -1,2 0,5 3,5 14 8 22 12 NE 1025,7 6 12 0,0
23.02.2018 07:00:00 -8,6 -9,9 -9,3 -1,1 0,6 3,5 13 7 16 8 NE 1025,2 6 0 0,0
23.02.2018 06:00:00 -8,1 -9,7 -8,9 -1,0 0,6 3,5 11 6 17 9 NE 1024,8 9 0 0,0
23.02.2018 05:00:00 -7,6 -9,5 -8,3 -0,9 0,6 3,5 11 6 16 9 NE 1024,3 10 0 0,0
23.02.2018 04:00:00 -7,2 -9,1 -8,0 -0,8 0,6 3,5 11 6 18 10 NE 1024,1 10 0 0,0
23.02.2018 03:00:00 -6,7 -8,8 -7,4 -0,7 0,6 3,5 14 8 18 10 NE 1024,6 10 0 0,0
23.02.2018 02:00:00 -6,2 -8,4 -7,0 -0,6 0,6 3,5 13 7 19 10 NE 1024,8 11 0 0,0
23.02.2018 01:00:00 -5,8 -8,1 -6,6 -0,5 0,7 3,5 14 7 18 10 NE 1024,5 11 0 0,0
23.02.2018 00:00:00 -5,5 -8,0 -6,2 -0,4 0,7 3,6 13 7 17 9 NE 1024,7 12 0 0,0
22.02.2018 23:00:00 -5,0 -8,0 -5,9 -0,3 0,7 3,6 11 6 16 9 NNE 1024,9 12 0 0,0
22.02.2018 22:00:00 -4,5 -8,1 -5,5 -0,2 0,7 3,6 12 6 19 11 NE 1024,9 12 0 0,0
22.02.2018 21:00:00 -3,8 -7,9 -4,8 -0,1 0,7 3,6 13 7 23 13 NE 1024,7 13 0 0,0
22.02.2018 20:00:00 -3,1 -7,8 -4,0 -0,1 0,7 3,6 16 8 23 13 NE 1024,5 13 0 0,0
22.02.2018 19:00:00 -2,8 -7,7 -3,8 -0,1 0,7 3,6 14 8 24 13 NE 1024,3 17 0 0,0
22.02.2018 18:00:00 -1,8 -8,3 -2,8 -0,1 0,7 3,6 19 11 36 19 NE 1024,1 24 4 0,0
22.02.2018 17:00:00 -0,8 -9,5 -1,2 -0,1 0,7 3,6 18 10 30 16 ENE 1023,8 25 38 0,0
22.02.2018 16:00:00 0,1 -9,3 0,2 -0,1 0,7 3,6 18 10 35 19 ENE 1023,6 23 39 0,0
22.02.2018 15:00:00 0,4 -9,4 1,8 -0,2 0,7 3,6 16 9 34 18 E 1023,8 23 28 0,0
22.02.2018 14:00:00 1,4 -7,8 5,0 -0,2 0,7 3,6 15 8 31 17 E 1023,8 20 60 0,0
22.02.2018 13:00:00 0,5 -7,1 2,9 -0,2 0,7 3,6 16 9 30 16 ENE 1024,6 19 60 0,0
22.02.2018 12:00:00 -1,0 -7,5 1,6 -0,3 0,7 3,6 17 9 35 19 E 1024,9 19 59 0,0
22.02.2018 11:00:00 -2,2 -6,9 -0,4 -0,3 0,7 3,6 19 11 35 19 ENE 1024,9 14 60 0,0
22.02.2018 10:00:00 -3,2 -6,2 -1,2 -0,4 0,8 3,6 16 9 22 12 NE 1025,4 9 60 0,0
22.02.2018 09:00:00 -5,3 -7,6 -4,4 -0,5 0,8 3,6 10 6 19 11 NE 1025,6 7 60 0,0
22.02.2018 08:00:00 -6,5 -8,2 -6,5 -0,5 0,8 3,6 13 7 18 10 NE 1025,6 7 27 0,0
22.02.2018 07:00:00 -7,0 -8,3 -7,7 -0,4 0,8 3,6 12 7 16 9 NNE 1025,4 6 0 0,0
22.02.2018 06:00:00 -6,6 -8,0 -7,4 -0,3 0,8 3,6 11 6 15 8 NE 1025,4 9 0 0,0
22.02.2018 05:00:00 -6,2 -7,5 -7,1 -0,2 0,8 3,6 12 6 15 8 NNE 1025,3 10 0 0,0
22.02.2018 04:00:00 -5,9 -7,0 -6,8 -0,2 0,9 3,6 11 6 14 8 NE 1025,4 9 0 0,0
22.02.2018 03:00:00 -5,5 -6,3 -6,3 -0,1 0,9 3,6 9 5 14 8 NE 1025,5 8 0 0,0
22.02.2018 02:00:00 -5,1 -5,9 -6,0 0,0 0,9 3,6 11 6 14 8 NNE 1025,6 6 0 0,0
22.02.2018 01:00:00 -4,6 -5,6 -5,5 0,0 0,9 3,6 10 5 12 6 NE 1025,9 7 0 0,0
22.02.2018 00:00:00 -4,3 -5,6 -5,3 0,0 0,9 3,6 9 5 11 6 NNE 1025,9 10 0 0,0
21.02.2018 23:00:00 -3,8 -5,5 -5,0 0,1 0,9 3,6 9 5 13 7 NE 1025,9 13 0 0,0
21.02.2018 22:00:00 -3,3 -5,3 -4,4 0,1 0,9 3,6 9 5 13 7 NE 1025,8 13 0 0,0
21.02.2018 21:00:00 -2,7 -5,2 -3,7 0,1 0,9 3,6 10 5 17 9 NE 1025,6 12 0 0,0
21.02.2018 20:00:00 -2,0 -5,0 -3,1 0,1 0,9 3,6 11 6 19 11 NE 1025,3 12 0 0,0
21.02.2018 19:00:00 -1,5 -5,3 -2,5 0,1 0,9 3,6 13 7 20 11 NE 1024,8 18 0 0,0
21.02.2018 18:00:00 -0,5 -6,1 -1,6 0,1 0,9 3,7 14 8 28 15 NE 1024,2 20 12 0,0
21.02.2018 17:00:00 0,6 -6,3 0,0 0,1 0,9 3,7 17 9 31 17 NE 1023,7 22 58 0,0
21.02.2018 16:00:00 1,4 -6,3 1,7 0,1 0,9 3,7 18 10 29 16 NE 1023,4 14 54 0,0
21.02.2018 15:00:00 1,6 -6,2 2,9 0,1 1,0 3,7 14 7 30 16 ENE 1023,5 14 60 0,0
21.02.2018 14:00:00 1,4 -6,3 3,2 0,0 1,0 3,7 16 9 29 15 E 1023,7 12 42 0,0
21.02.2018 13:00:00 -0,8 -4,5 -0,1 0,0 1,0 3,7 10 5 22 12 NNE 1024,5 11 41 0,0
21.02.2018 12:00:00 -1,6 -4,8 0,4 0,0 1,0 3,7 12 7 19 10 NNE 1024,8 6 49 0,0
21.02.2018 11:00:00 -3,0 -4,2 -0,8 0,0 1,0 3,7 13 7 23 12 NE 1024,8 3,7 15 0,0
21.02.2018 10:00:00 -4,2 -4,6 -3,3 0,0 1,0 3,7 14 8 22 12 NE 1024,9 2,0 0 0,0
21.02.2018 09:00:00 -5,1 -5,3 -4,3 0,1 1,0 3,7 15 8 21 12 NNE 1024,3 0,7 0 0,0
21.02.2018 08:00:00 -5,7 -5,9 -5,3 0,1 1,1 3,7 11 6 19 11 NE 1023,7 0,8 0 0,0
21.02.2018 07:00:00 -6,0 -6,6 -6,5 0,1 1,1 3,7 8 5 13 7 NNE 1024,0 2,7 0 0,0
21.02.2018 06:00:00 -5,9 -6,6 -6,4 0,2 1,1 3,7 10 6 16 9 NNE 1023,7 3,0 0 0,0
21.02.2018 05:00:00 -5,5 -6,2 -6,1 0,2 1,1 3,7 11 6 17 9 NNE 1023,4 3,0 0 0,0
21.02.2018 04:00:00 -4,8 -5,9 -5,6 0,3 1,1 3,7 14 8 22 12 NNE 1023,0 5 0 0,0
21.02.2018 03:00:00 -4,6 -6,0 -5,3 0,3 1,2 3,7 14 7 17 9 NNE 1022,4 5 0 0,0
21.02.2018 02:00:00 -4,2 -6,1 -5,1 0,4 1,2 3,7 10 5 19 10 NE 1022,0 5 0 0,0
21.02.2018 01:00:00 -3,8 -5,6 -4,8 0,4 1,2 3,7 13 7 19 10 NNE 1021,6 6 0 0,0
21.02.2018 00:00:00 -3,6 -5,4 -4,7 0,4 1,2 3,7 11 6 14 7 NNE 1021,5 6 0 0,0
20.02.2018 23:00:00 -3,9 -5,4 -5,9 0,4 1,2 3,7 6 3 13 7 N 1021,5 5 0 0,0
20.02.2018 22:00:00 -2,7 -5,1 -3,7 0,4 1,2 3,7 10 5 14 8 NE 1021,2 5 0 0,0
20.02.2018 21:00:00 -2,0 -4,9 -2,9 0,4 1,2 3,7 10 5 16 9 ENE 1021,0 5 0 0,0
20.02.2018 20:00:00 -1,6 -4,6 -2,4 0,4 1,2 3,7 11 6 18 10 NNE 1020,8 8 0 0,0
20.02.2018 19:00:00 -0,9 -4,6 -1,6 0,4 1,2 3,7 14 8 21 11 NE 1020,3 10 0 0,0
20.02.2018 18:00:00 -0,2 -4,4 -1,0 0,4 1,2 3,7 16 9 22 12 NE 1019,7 9 0 0,0
20.02.2018 17:00:00 1,1 -4,3 0,2 0,4 1,2 3,7 11 6 21 11 ENE 1018,9 12 2 0,0
20.02.2018 16:00:00 1,9 -4,3 1,9 0,4 1,2 3,7 14 7 25 13 ENE 1018,5 12 60 0,0
20.02.2018 15:00:00 1,9 -4,7 2,4 0,4 1,2 3,7 13 7 24 13 ENE 1018,6 9 60 0,0
20.02.2018 14:00:00 2,0 -4,3 3,4 0,4 1,2 3,7 15 8 24 13 ENE 1018,7 9 60 0,0
20.02.2018 13:00:00 1,9 -3,7 4,1 0,4 1,3 3,7 12 6 23 12 NE 1018,8 7 60 0,0
20.02.2018 12:00:00 0,7 -2,9 2,4 0,4 1,3 3,7 11 6 18 10 NNE 1019,4 6 57 0,0
20.02.2018 11:00:00 0,1 -3,5 3,0 0,4 1,3 3,7 6 3 19 11 NNE 1019,3 3,8 60 0,0
20.02.2018 10:00:00 -2,1 -3,9 -1,3 0,4 1,3 3,7 6 3 20 11 E 1019,7 3,0 56 0,0
20.02.2018 09:00:00 -3,3 -4,7 -2,4 0,4 1,4 3,7 9 5 19 11 E 1019,7 3,3 50 0,0
20.02.2018 08:00:00 -4,0 -4,6 -4,1 0,5 1,4 3,7 5 3 17 9 N 1019,5 4,3 0 0,0
20.02.2018 07:00:00 -5,0 -5,2 -6,2 0,5 1,4 3,7 5 3 19 10 E 1019,6 3,7 0 0,0
20.02.2018 06:00:00 -4,8 -5,3 -5,9 0,6 1,4 3,7 7 4 14 7 WNW 1019,4 4,0 0 0,0
20.02.2018 05:00:00 -3,8 -4,5 -4,8 0,6 1,5 3,7 4 2 19 11 NE 1019,3 7 0 0,0
20.02.2018 04:00:00 -3,5 -4,5 -4,4 0,7 1,5 3,7 6 3 19 11 NE 1019,3 10 0 0,0
20.02.2018 03:00:00 -2,5 -4,5 -3,5 0,7 1,5 3,7 7 4 20 11 E 1019,2 10 0 0,0
20.02.2018 02:00:00 -2,3 -4,6 -3,3 0,8 1,5 3,7 9 5 20 11 E 1019,3 10 0 0,0
20.02.2018 01:00:00 -1,6 -4,8 -3,4 0,8 1,6 3,7 8 4 12 7 S 1019,6 10 0 0,0
20.02.2018 00:00:00 -2,8 -4,7 -4,4 0,9 1,6 3,7 9 5 22 12 SE 1020,0 8 0 0,0
19.02.2018 23:00:00 -2,0 -4,3 -3,0 0,9 1,6 3,7 6 3 18 10 NNE 1020,0 12 0 0,0
19.02.2018 22:00:00 -1,3 -4,0 -2,8 1,0 1,7 3,7 8 5 17 9 NW 1020,0 12 0 0,0
19.02.2018 21:00:00 -1,7 -4,7 -3,6 1,0 1,7 3,7 13 7 15 8 SE 1020,3 12 0 0,0
19.02.2018 20:00:00 -0,6 -4,5 -1,8 1,1 1,7 3,7 7 4 21 11 E 1020,3 14 0 0,0
19.02.2018 19:00:00 0,1 -4,9 -1,2 1,3 1,7 3,7 9 5 23 12 E 1020,3 17 0 0,0
19.02.2018 18:00:00 0,7 -4,8 -0,7 1,4 1,7 3,7 6 3 22 12 ENE 1020,5 25 0 0,0
19.02.2018 17:00:00 1,5 -4,5 0,5 1,8 1,6 3,7 7 4 19 10 ENE 1020,5 27 7 0,0
19.02.2018 16:00:00 2,9 -5,0 3,6 1,6 1,4 3,7 6 4 25 13 E 1020,8 27 60 0,0
19.02.2018 15:00:00 2,8 -5,4 4,3 1,2 1,4 3,7 8 4 15 8 ESE 1021,3 27 48 0,0
19.02.2018 14:00:00 2,8 -5,5 5,9 0,7 1,4 3,7 10 5 18 10 SE 1021,7 27 60 0,0
19.02.2018 13:00:00 2,4 -5,5 4,6 0,6 1,4 3,7 7 4 21 11 SSE 1022,6 27 60 0,0
19.02.2018 12:00:00 1,4 -5,4 3,2 0,6 1,4 3,7 13 7 23 12 SSW 1023,4 27 60 0,0
19.02.2018 11:00:00 0,8 -5,4 2,5 0,6 1,4 3,7 14 7 21 12 SSW 1023,9 25 58 0,0
19.02.2018 10:00:00 0,1 -4,3 1,9 0,6 1,4 3,7 14 8 20 11 SSW 1024,3 22 60 0,0
19.02.2018 09:00:00 -1,4 -4,8 -0,6 0,6 1,5 3,7 6 3 13 7 S 1024,8 22 45 0,0
19.02.2018 08:00:00 -2,5 -5,5 -3,6 0,7 1,5 3,6 8 4 17 9 WSW 1025,2 25 2 0,0
19.02.2018 07:00:00 -3,2 -5,9 -5,3 0,7 1,5 3,6 11 6 13 7 SSW 1025,4 25 0 0,0
19.02.2018 06:00:00 -3,5 -5,1 -5,1 0,8 1,6 3,7 10 6 14 7 S 1025,5 15 0 0,0

tt = Température de l'air
td = dewpoint
tt 5cm = Température de l'air 5cm
tt -5cm = Température de l'air -5cm
tt -20cm = Température de l'air -20cm
tt -100cm = Température de l'air -100cm
ff = Vitesse du vent
fx = gusts
dd = Direction du vent
ppp = reduced air pressure
vv = visibility
sd = Ensoleillement
rr = Quantités de précipitations

stations d'obs. à proximité